Wind_Speed
11 12 13 13 14 15 16 16 17 18 18 18 18 18 18 17 16 14 12 10 8 6 5 5 7 10 12 14 16 17 19 21 23 26 28 29 31 30 31 32 32 31 32
11 12 13 13 14 14 15 16 16 17 18 18 18 18 17 17 15 14 13 11 8 6 4 4 5 8 11 12 14 15 18 20 22 23 24 25 28 29 31 31 31 31 31
11 12 13 13 13 14 14 15 16 16 17 17 17 17 17 17 15 14 12 12 9 6 4 3 3 5 9 10 12 14 16 18 20 21 22 24 26 26 29 30 31 31 31
12 12 13 13 13 13 14 14 15 16 16 17 17 17 16 16 15 14 13 11 9 7 5 3 2 4 7 8 10 12 14 17 19 20 21 22 24 25 27 29 30 30 30
12 12 13 13 13 13 13 14 15 15 16 16 16 16 16 15 15 14 13 12 10 8 6 4 1 2 4 7 8 11 13 15 16 17 19 21 23 24 26 28 29 29 30
12 13 13 13 13 13 13 14 14 14 15 15 15 15 14 14 14 14 13 12 10 8 7 5 3 1 3 4 7 9 11 14 15 15 16 19 21 23 24 26 27 29 29
13 13 14 14 13 13 13 13 14 14 14 14 14 14 13 13 13 13 12 11 10 8 7 6 4 3 2 3 5 8 11 13 15 16 16 17 19 21 23 24 26 28 29
15 14 14 14 14 14 13 13 13 13 13 13 13 13 12 12 12 12 11 10 10 9 7 7 5 4 3 3 4 6 8 10 12 14 16 17 18 20 21 23 24 26 27
16 15 15 15 15 14 14 13 13 13 13 13 13 12 12 11 11 11 10 10 9 9 8 7 6 5 4 3 4 6 7 9 10 12 14 15 17 19 20 21 23 25 26
17 16 16 16 15 15 14 14 13 13 13 13 13 12 12 12 11 11 10 10 9 9 8 7 7 6 6 5 5 6 6 7 9 10 12 13 15 17 19 20 22 24 25
18 18 17 17 16 16 15 14 14 13 13 13 13 13 12 12 12 11 11 10 10 9 9 8 8 7 7 6 6 6 6 7 8 9 11 12 14 15 17 19 20 22 24
20 19 19 18 17 17 16 16 15 14 14 13 13 13 13 13 12 12 11 11 10 10 10 9 9 8 8 8 7 7 7 8 8 9 11 12 14 15 16 18 20 22 24
21 21 20 20 19 18 18 17 16 16 15 15 14 14 13 13 13 13 12 12 11 11 11 10 10 10 9 9 9 9 9 9 9 10 11 12 14 15 17 18 19 21 23
23 23 22 22 21 20 20 19 18 17 17 16 16 15 14 14 14 14 14 13 13 12 12 12 11 11 11 11 11 10 10 11 11 12 12 13 15 15 17 18 20 21 23
25 25 24 24 23 22 22 21 20 19 19 18 17 17 16 16 16 15 15 15 14 14 14 13 13 12 12 12 12 13 13 13 13 14 15 15 16 17 18 20 21 23 24
28 27 27 26 25 24 23 23 22 21 21 20 19 19 18 17 17 17 17 16 16 16 15 15 15 14 14 14 14 15 15 15 15 15 16 16 17 18 19 21 22 23 25
30 30 29 28 28 27 26 25 24 23 23 22 21 20 20 19 19 19 19 18 18 17 17 17 17 17 17 17 17 17 17 17 18 18 19 19 20 20 21 21 22 24 25
32 32 31 31 30 29 28 27 26 25 24 24 23 22 22 21 21 21 20 20 19 19 19 18 18 18 18 19 19 19 20 20 20 21 21 22 22 23 23 24 24 25 26
35 34 34 33 32 32 31 30 29 28 27 26 25 25 24 24 23 23 22 22 21 21 21 20 20 20 20 21 21 21 22 22 23 23 23 24 24 25 25 26 27 27 28
37 36 36 35 34 34 33 32 31 30 29 28 28 27 26 26 26 25 25 24 23 23 23 23 23 23 23 23 23 23 23 24 24 25 26 26 27 27 28 28 29 30 30
38 38 38 37 36 36 35 34 33 32 31 30 30 29 29 28 28 27 27 26 25 25 25 25 25 25 25 25 25 25 25 26 27 27 28 28 29 30 30 30 31 32 32
40 39 39 38 38 38 37 36 35 34 33 32 31 31 30 30 30 29 29 28 28 27 27 27 27 27 27 27 27 27 28 28 29 29 30 30 31 31 32 33 33 33 34
40 40 40 39 39 39 39 38 37 35 34 34 33 33 32 32 31 31 30 30 29 29 29 29 29 28 29 29 29 30 30 30 30 31 31 32 33 33 34 34 35 36 36
40 40 40 39 39 39 39 39 38 38 37 36 35 35 34 34 33 32 32 32 31 31 31 31 30 30 31 31 31 32 32 32 32 33 33 34 34 35 35 36 36 37 37
40 40 40 39 40 40 39 39 39 39 39 38 37 37 36 35 35 34 34 33 33 33 32 32 32 32 32 32 33 33 34 34 34 34 35 35 36 36 37 37 37 37 38
40 40 40 40 39 39 39 39 39 39 39 39 39 38 38 37 37 36 36 36 35 35 34 34 34 35 35 35 35 35 35 35 35 36 36 36 37 37 38 38 38 39 39
Wind_Direction
318 325 329 333 337 341 345 348 351 353 354 356 357 357 359 359 359 359 355 347 334 315 295 268 235 223 220 218 215 214 214 213 213 214 217 218 220 221 220 221 223 223 224
315 320 325 329 334 339 342 345 349 352 353 354 356 356 358 360 0 360 359 357 347 332 312 284 241 225 216 214 214 216 216 215 215 217 218 221 223 223 221 222 224 225 227
310 316 321 326 331 335 339 342 345 348 351 354 355 357 359 1 1 1 2 4 2 352 334 302 253 227 218 212 214 218 218 215 215 218 220 222 223 224 223 224 224 227 230
304 311 316 320 325 330 335 340 343 346 349 352 354 357 358 1 3 3 5 7 9 7 358 331 265 236 225 219 219 218 216 216 217 220 222 224 226 226 226 227 228 230 232
298 305 311 316 320 325 330 334 338 342 345 347 350 354 357 360 3 5 7 9 11 14 13 6 326 237 230 225 221 220 220 219 220 222 225 227 229 230 228 228 230 232 233
293 299 305 311 315 319 324 328 332 336 340 343 347 350 354 358 1 3 7 10 10 11 13 11 2 303 252 235 226 224 226 227 227 226 228 229 232 232 230 231 231 233 235
288 294 299 304 308 312 317 322 327 330 335 340 344 348 350 353 358 2 5 10 11 11 10 7 359 339 300 254 236 232 233 235 236 234 232 232 232 231 231 232 234 235 236
284 288 293 297 302 307 311 316 321 324 329 334 338 343 346 348 353 357 0 3 7 9 6 5 0 343 317 274 254 246 243 240 237 235 235 235 235 235 235 235 236 237 238
281 285 288 292 296 301 305 310 314 318 322 326 330 335 338 341 344 347 351 354 356 359 358 354 355 346 327 298 272 264 258 248 242 238 236 237 237 237 239 240 241 241 242
278 281 284 287 290 294 298 303 308 311 315 319 322 326 329 332 334 336 337 340 341 342 344 344 342 338 330 318 295 277 269 261 253 247 244 242 242 242 243 244 244 246 246
274 276 279 282 285 287 290 295 299 303 307 311 314 317 320 324 326 327 328 329 330 330 330 330 329 330 326 318 307 293 281 272 261 254 251 249 248 246 247 249 249 249 250
270 272 275 277 280 282 285 288 292 295 299 303 307 309 312 314 317 318 319 321 320 320 321 319 316 314 316 314 308 301 292 281 273 265 259 257 256 254 254 255 254 252 253
267 269 271 273 275 277 280 283 285 288 291 295 299 302 304 306 309 310 311 312 313 312 312 313 310 307 305 304 301 298 293 286 279 274 270 266 263 260 259 259 259 259 259
266 267 268 269 271 273 276 278 281 283 286 288 290 294 297 299 301 303 304 305 306 307 307 307 305 300 298 297 295 292 290 288 286 283 279 275 272 270 268 267 265 265 264
265 265 266 267 268 270 272 275 277 279 281 283 285 287 290 292 295 297 299 299 299 300 300 300 300 298 295 293 292 291 289 287 286 284 282 281 279 277 275 273 271 269 268
263 263 263 264 265 266 268 270 273 275 277 278 280 283 285 288 290 292 293 294 294 295 296 294 293 292 291 290 289 288 288 288 287 286 284 282 281 280 278 278 276 274 273
261 261 260 261 262 263 265 267 269 271 273 274 276 278 281 283 285 287 288 289 290 291 292 292 291 290 288 287 287 287 287 288 288 286 285 283 282 280 279 279 279 278 277
258 259 259 259 259 261 262 263 265 267 270 272 273 275 277 279 281 283 285 286 287 288 289 290 290 289 288 287 287 287 286 286 287 287 286 285 283 282 281 281 281 280 280
257 257 257 257 258 259 260 261 262 264 267 269 271 272 274 276 278 280 281 282 284 285 286 287 287 288 288 287 287 286 286 286 286 287 287 286 286 285 284 284 284 283 282
257 256 255 256 256 257 258 260 260 262 263 266 268 270 272 274 276 278 279 280 280 282 284 285 285 286 286 286 287 287 287 287 287 287 286 286 286 285 285 284 284 284 284
256 256 255 254 255 256 257 258 259 260 261 263 265 267 270 272 274 275 277 278 278 279 281 283 284 285 285 285 286 287 287 287 287 288 287 286 286 286 286 286 285 285 284
255 255 255 254 254 254 255 257 258 259 260 261 263 265 267 269 271 272 274 275 276 278 280 282 283 283 284 286 287 287 288 288 288 288 288 288 288 287 287 286 286 286 285
255 255 255 255 254 254 254 255 256 258 259 260 261 262 264 266 268 269 271 272 274 276 278 280 282 282 283 285 286 287 288 289 289 288 288 289 289 288 288 287 287 286 286
255 255 254 254 254 254 254 255 256 257 258 259 260 261 262 264 266 267 269 271 273 275 277 278 280 281 283 284 285 286 288 289 289 289 289 289 290 290 289 288 288 287 287
254 254 254 254 254 254 254 255 256 256 257 258 259 260 261 262 264 265 268 270 272 273 276 278 279 280 282 284 286 287 288 288 288 289 289 290 290 291 291 290 290 289 288
253 253 254 254 253 253 254 255 256 256 257 258 260 260 260 261 263 265 266 268 270 272 274 276 278 280 283 285 287 288 288 288 288 289 290 290 290 290 291 291 290 290 289
Height
5815 5813 5810 5808 5805 5801 5798 5795 5791 5787 5784 5780 5776 5771 5767 5764 5760 5757 5754 5751 5749 5748 5747 5746 5747 5748 5750 5751 5754 5757 5760 5763 5767 5771 5775 5779 5783 5788 5792 5797 5801 5806 5810
5813 5811 5808 5806 5803 5800 5797 5794 5790 5787 5783 5779 5775 5771 5767 5764 5760 5757 5754 5751 5748 5747 5746 5745 5746 5746 5748 5750 5752 5754 5757 5761 5764 5767 5771 5775 5779 5783 5787 5792 5796 5800 5804
5810 5808 5806 5804 5801 5798 5795 5792 5789 5786 5782 5779 5775 5771 5767 5764 5760 5757 5754 5751 5748 5746 5745 5745 5745 5746 5747 5748 5750 5752 5755 5758 5761 5764 5767 5771 5775 5779 5782 5786 5790 5794 5798
5808 5806 5804 5802 5799 5797 5794 5791 5788 5785 5781 5778 5774 5771 5767 5764 5760 5757 5754 5751 5749 5747 5745 5745 5744 5745 5746 5747 5749 5750 5753 5755 5758 5761 5764 5767 5771 5774 5777 5781 5785 5788 5792
5805 5803 5801 5799 5797 5795 5792 5789 5786 5784 5780 5777 5774 5770 5767 5764 5761 5757 5754 5752 5749 5748 5746 5745 5744 5745 5745 5746 5747 5749 5751 5753 5755 5758 5760 5763 5766 5769 5772 5775 5779 5782 5786
5802 5800 5799 5797 5794 5792 5790 5787 5785 5782 5779 5776 5773 5770 5767 5764 5761 5758 5755 5753 5750 5748 5747 5746 5745 5744 5745 5745 5746 5748 5749 5751 5753 5755 5757 5759 5762 5764 5767 5770 5773 5777 5780
5798 5797 5795 5794 5792 5790 5788 5785 5783 5780 5777 5775 5772 5769 5766 5764 5761 5758 5756 5753 5751 5749 5748 5746 5745 5744 5744 5744 5745 5746 5747 5748 5750 5752 5754 5755 5758 5760 5762 5765 5767 5770 5773
5794 5793 5792 5790 5788 5787 5785 5783 5781 5778 5776 5773 5770 5768 5766 5763 5761 5758 5756 5754 5752 5750 5748 5747 5745 5744 5744 5744 5744 5745 5745 5746 5747 5748 5750 5752 5753 5755 5758 5760 5762 5764 5766
5790 5789 5787 5786 5785 5783 5782 5780 5778 5776 5773 5771 5769 5767 5764 5762 5760 5758 5756 5754 5752 5750 5749 5747 5746 5745 5744 5743 5743 5743 5744 5744 5744 5745 5746 5748 5749 5751 5753 5755 5757 5759 5760
5785 5784 5783 5782 5781 5779 5778 5777 5775 5773 5771 5769 5767 5765 5763 5761 5759 5757 5755 5753 5752 5750 5748 5747 5745 5744 5743 5742 5742 5742 5742 5742 5742 5743 5744 5745 5746 5747 5749 5750 5751 5753 5754
5780 5779 5778 5778 5777 5775 5774 5773 5771 5770 5768 5766 5764 5762 5761 5759 5757 5755 5754 5752 5750 5749 5747 5746 5744 5743 5742 5741 5740 5740 5740 5740 5740 5740 5741 5741 5742 5743 5744 5745 5746 5747 5749
5774 5774 5773 5772 5772 5771 5770 5769 5767 5766 5765 5763 5761 5760 5758 5756 5755 5753 5752 5750 5748 5747 5745 5744 5743 5742 5741 5740 5739 5738 5737 5737 5737 5737 5738 5738 5739 5739 5740 5740 5741 5742 5743
5768 5768 5767 5767 5766 5765 5765 5764 5763 5762 5761 5759 5758 5756 5755 5753 5752 5751 5749 5748 5746 5745 5743 5742 5740 5739 5738 5737 5737 5736 5735 5735 5735 5734 5734 5734 5734 5735 5735 5735 5736 5736 5736
5760 5760 5760 5760 5760 5759 5759 5758 5757 5757 5756 5755 5754 5752 5751 5750 5748 5747 5746 5744 5743 5742 5740 5739 5738 5737 5736 5735 5734 5733 5733 5732 5731 5731 5731 5730 5730 5730 5730 5730 5730 5730 5730
5752 5753 5753 5753 5753 5753 5752 5752 5752 5751 5750 5749 5749 5747 5747 5746 5744 5743 5742 5741 5739 5738 5737 5736 5734 5733 5732 5731 5731 5730 5729 5728 5728 5727 5726 5726 5725 5725 5724 5724 5724 5723 5723
5743 5744 5744 5745 5745 5745 5745 5745 5745 5745 5744 5743 5743 5742 5741 5740 5739 5738 5737 5736 5735 5734 5733 5731 5730 5729 5728 5727 5726 5726 5725 5724 5723 5723 5722 5721 5720 5719 5719 5718 5717 5717 5716
5734 5735 5735 5736 5737 5737 5737 5737 5738 5738 5737 5737 5736 5736 5735 5735 5734 5733 5732 5730 5729 5728 5728 5726 5725 5724 5723 5723 5722 5721 5720 5719 5718 5717 5716 5715 5714 5713 5712 5711 5710 5709 5708
5723 5725 5725 5726 5727 5728 5728 5729 5729 5729 5729 5729 5729 5729 5728 5728 5727 5726 5725 5725 5724 5723 5722 5721 5720 5719 5718 5717 5716 5715 5714 5713 5712 5711 5710 5709 5707 5706 5705 5704 5703 5702 5700
5712 5713 5714 5716 5717 5718 5719 5719 5720 5720 5721 5721 5721 5721 5721 5720 5720 5719 5718 5718 5717 5716 5715 5715 5714 5712 5711 5711 5710 5708 5707 5706 5705 5704 5703 5701 5700 5699 5698 5696 5695 5693 5692
5700 5702 5703 5704 5706 5707 5708 5709 5710 5711 5711 5712 5712 5712 5712 5712 5712 5711 5711 5710 5710 5709 5708 5707 5706 5705 5704 5703 5702 5701 5700 5699 5698 5696 5695 5693 5692 5691 5689 5687 5686 5684 5682
5687 5689 5690 5692 5694 5695 5697 5698 5699 5700 5701 5702 5702 5703 5703 5703 5703 5703 5702 5702 5701 5701 5700 5700 5699 5698 5697 5696 5694 5693 5692 5691 5689 5688 5686 5685 5683 5681 5680 5678 5676 5674 5672
5674 5676 5677 5679 5681 5683 5685 5686 5688 5689 5690 5691 5692 5692 5693 5693 5693 5693 5693 5693 5692 5692 5691 5691 5690 5689 5688 5687 5686 5684 5683 5681 5680 5678 5677 5675 5673 5671 5669 5667 5665 5663 5661
5660 5662 5664 5666 5668 5670 5672 5674 5676 5677 5678 5679 5680 5681 5682 5682 5682 5683 5683 5683 5683 5682 5682 5681 5680 5679 5678 5677 5676 5675 5673 5672 5670 5668 5666 5665 5663 5660 5658 5656 5654 5652 5650
5647 5649 5651 5653 5655 5657 5659 5661 5663 5665 5666 5667 5669 5670 5670 5671 5671 5672 5672 5672 5672 5672 5672 5671 5670 5670 5668 5667 5666 5664 5663 5661 5659 5658 5656 5654 5651 5649 5647 5645 5642 5640 5637
5633 5635 5637 5639 5641 5644 5646 5648 5650 5652 5653 5655 5656 5657 5658 5659 5660 5661 5661 5661 5661 5661 5661 5660 5660 5659 5658 5656 5655 5654 5652 5650 5648 5646 5644 5642 5640 5637 5635 5633 5630 5627 5625
5620 5622 5624 5626 5628 5630 5632 5634 5636 5638 5640 5642 5643 5644 5646 5647 5648 5649 5649 5650 5650 5650 5650 5649 5648 5648 5646 5645 5644 5642 5640 5639 5637 5635 5633 5630 5628 5625 5623 5620 5618 5615 5612